Time,TemperatureF,DewpointF,PressureIn,WindDirection,WindDirectionDegrees,WindSpeedMPH,WindSpeedGustMPH,Humidity,HourlyPrecipIn,Conditions,Clouds,dailyrainin,SoftwareType,DateUTC
2013-05-11 00:00:00,70.0,70.0,30.04,South,190,11.0,13.0,99,-99.99,,,-99.99,,2013-05-11 04:00:00,
2013-05-11 00:23:00,70.0,70.0,30.04,South,190,11.0,13.0,99,-99.99,,,-99.99,,2013-05-11 04:23:00,
2013-05-11 00:32:00,70.0,70.0,30.04,South,190,11.0,13.0,99,-99.99,,,-99.99,,2013-05-11 04:32:00,
2013-05-11 00:42:00,70.0,70.0,30.04,South,190,11.0,13.0,99,-99.99,,,-99.99,,2013-05-11 04:42:00,
2013-05-11 00:52:00,70.0,70.0,30.04,South,190,11.0,13.0,99,-99.99,,,-99.99,,2013-05-11 04:52:00,
2013-05-11 01:00:00,70.0,70.0,30.05,SSW,200,10.0,11.0,100,-99.99,,,-99.99,,2013-05-11 05:00:00,
2013-05-11 01:21:00,70.0,70.0,30.05,SSW,200,10.0,11.0,100,-99.99,,,-99.99,,2013-05-11 05:21:00,
2013-05-11 01:31:00,70.0,70.0,30.05,SSW,200,10.0,11.0,100,-99.99,,,-99.99,,2013-05-11 05:31:00,
2013-05-11 01:42:00,70.0,70.0,30.05,SSW,200,10.0,11.0,100,-99.99,,,-99.99,,2013-05-11 05:42:00,
2013-05-11 01:51:00,70.0,70.0,30.05,SSW,200,10.0,11.0,100,-99.99,,,-99.99,,2013-05-11 05:51:00,
2013-05-11 02:00:00,70.0,70.0,30.02,SSW,200,11.0,14.0,99,-99.99,,,-99.99,,2013-05-11 06:00:00,
2013-05-11 02:21:00,70.0,70.0,30.02,SSW,200,11.0,14.0,99,-99.99,,,-99.99,,2013-05-11 06:21:00,
2013-05-11 02:31:00,70.0,70.0,30.02,SSW,200,11.0,14.0,99,-99.99,,,-99.99,,2013-05-11 06:31:00,
2013-05-11 02:42:00,70.0,70.0,30.02,SSW,200,11.0,14.0,99,-99.99,,,-99.99,,2013-05-11 06:42:00,
2013-05-11 02:52:00,70.0,70.0,30.02,SSW,200,11.0,14.0,99,-99.99,,,-99.99,,2013-05-11 06:52:00,
2013-05-11 03:00:00,69.0,69.0,30.01,SSW,200,10.0,14.0,100,-99.99,,,-99.99,,2013-05-11 07:00:00,
2013-05-11 03:21:00,69.0,69.0,30.01,SSW,200,10.0,14.0,100,-99.99,,,-99.99,,2013-05-11 07:21:00,
2013-05-11 03:31:00,69.0,69.0,30.01,SSW,200,10.0,14.0,100,-99.99,,,-99.99,,2013-05-11 07:31:00,
2013-05-11 03:41:00,69.0,69.0,30.01,SSW,200,10.0,14.0,100,-99.99,,,-99.99,,2013-05-11 07:41:00,
2013-05-11 03:52:00,69.0,69.0,30.01,SSW,200,10.0,14.0,100,-99.99,,,-99.99,,2013-05-11 07:52:00,
2013-05-11 04:00:00,71.0,70.0,30.01,SSW,200,11.0,14.0,99,-99.99,,,-99.99,,2013-05-11 08:00:00,
2013-05-11 04:21:00,71.0,70.0,30.01,SSW,200,11.0,14.0,99,-99.99,,,-99.99,,2013-05-11 08:21:00,
2013-05-11 04:31:00,71.0,70.0,30.01,SSW,200,11.0,14.0,99,-99.99,,,-99.99,,2013-05-11 08:31:00,
2013-05-11 04:42:00,71.0,70.0,30.01,SSW,200,11.0,14.0,99,-99.99,,,-99.99,,2013-05-11 08:42:00,
2013-05-11 04:51:00,71.0,70.0,30.01,SSW,200,11.0,14.0,99,-99.99,,,-99.99,,2013-05-11 08:51:00,
2013-05-11 05:00:00,70.0,70.0,30.00,SSW,200,9.0,11.0,99,-99.99,,,-99.99,,2013-05-11 09:00:00,
2013-05-11 05:21:00,70.0,70.0,30.00,SSW,200,9.0,11.0,99,-99.99,,,-99.99,,2013-05-11 09:21:00,
2013-05-11 05:32:00,70.0,70.0,30.00,SSW,200,9.0,11.0,99,-99.99,,,-99.99,,2013-05-11 09:32:00,
2013-05-11 05:42:00,70.0,70.0,30.00,SSW,200,9.0,11.0,99,-99.99,,,-99.99,,2013-05-11 09:42:00,
2013-05-11 05:52:00,70.0,70.0,30.00,SSW,200,9.0,11.0,99,-99.99,,,-99.99,,2013-05-11 09:52:00,
2013-05-11 06:00:00,70.0,70.0,30.00,SSW,200,11.0,13.0,99,-99.99,,,-99.99,,2013-05-11 10:00:00,
2013-05-11 06:22:00,70.0,70.0,30.00,SSW,200,11.0,13.0,99,-99.99,,,-99.99,,2013-05-11 10:22:00,
2013-05-11 06:32:00,70.0,70.0,30.00,SSW,200,11.0,13.0,99,-99.99,,,-99.99,,2013-05-11 10:32:00,
2013-05-11 06:41:00,70.0,70.0,30.00,SSW,200,11.0,13.0,99,-99.99,,,-99.99,,2013-05-11 10:41:00,
2013-05-11 06:52:00,70.0,70.0,30.00,SSW,200,11.0,13.0,99,-99.99,,,-99.99,,2013-05-11 10:52:00,
2013-05-11 07:00:00,71.0,70.0,30.01,SSW,200,11.0,14.0,98,-99.99,,,-99.99,,2013-05-11 11:00:00,
2013-05-11 07:21:00,71.0,70.0,30.01,SSW,200,11.0,14.0,98,-99.99,,,-99.99,,2013-05-11 11:21:00,
2013-05-11 07:31:00,71.0,70.0,30.01,SSW,200,11.0,14.0,98,-99.99,,,-99.99,,2013-05-11 11:31:00,
2013-05-11 07:42:00,71.0,70.0,30.01,SSW,200,11.0,14.0,98,-99.99,,,-99.99,,2013-05-11 11:42:00,
2013-05-11 07:51:00,71.0,70.0,30.01,SSW,200,11.0,14.0,98,-99.99,,,-99.99,,2013-05-11 11:51:00,
2013-05-11 08:00:00,71.0,70.0,30.01,SSW,200,11.0,15.0,96,-99.99,,,-99.99,,2013-05-11 12:00:00,
2013-05-11 08:21:00,71.0,70.0,30.01,SSW,200,11.0,15.0,96,-99.99,,,-99.99,,2013-05-11 12:21:00,
2013-05-11 08:31:00,71.0,70.0,30.01,SSW,200,11.0,15.0,96,-99.99,,,-99.99,,2013-05-11 12:31:00,
2013-05-11 08:41:00,71.0,70.0,30.01,SSW,200,11.0,15.0,96,-99.99,,,-99.99,,2013-05-11 12:41:00,
2013-05-11 08:51:00,71.0,70.0,30.01,SSW,200,11.0,15.0,96,-99.99,,,-99.99,,2013-05-11 12:51:00,
2013-05-11 09:00:00,72.0,70.0,29.99,SSW,210,13.0,17.0,92,-99.99,,,-99.99,,2013-05-11 13:00:00,
2013-05-11 09:21:00,72.0,70.0,29.99,SSW,210,13.0,17.0,92,-99.99,,,-99.99,,2013-05-11 13:21:00,
2013-05-11 09:31:00,72.0,70.0,29.99,SSW,210,13.0,17.0,92,-99.99,,,-99.99,,2013-05-11 13:31:00,
2013-05-11 09:41:00,72.0,70.0,29.99,SSW,210,13.0,17.0,92,-99.99,,,-99.99,,2013-05-11 13:41:00,
2013-05-11 09:52:00,72.0,70.0,29.99,SSW,210,13.0,17.0,92,-99.99,,,-99.99,,2013-05-11 13:52:00,
2013-05-11 10:00:00,73.0,70.0,29.98,SSW,200,13.0,17.0,90,-99.99,,,-99.99,,2013-05-11 14:00:00,
2013-05-11 10:21:00,73.0,70.0,29.98,SSW,200,13.0,17.0,90,-99.99,,,-99.99,,2013-05-11 14:21:00,
2013-05-11 10:32:00,73.0,70.0,29.98,SSW,200,13.0,17.0,90,-99.99,,,-99.99,,2013-05-11 14:32:00,
2013-05-11 10:41:00,73.0,70.0,29.98,SSW,200,13.0,17.0,90,-99.99,,,-99.99,,2013-05-11 14:41:00,
2013-05-11 10:51:00,73.0,70.0,29.98,SSW,200,13.0,17.0,90,-99.99,,,-99.99,,2013-05-11 14:51:00,
2013-05-11 11:00:00,74.0,70.0,29.98,SSW,200,11.0,16.0,86,-99.99,,,-99.99,,2013-05-11 15:00:00,
2013-05-11 11:21:00,74.0,70.0,29.98,SSW,200,11.0,16.0,86,-99.99,,,-99.99,,2013-05-11 15:21:00,
2013-05-11 11:32:00,74.0,70.0,29.98,SSW,200,11.0,16.0,86,-99.99,,,-99.99,,2013-05-11 15:32:00,
2013-05-11 11:42:00,74.0,70.0,29.98,SSW,200,11.0,16.0,86,-99.99,,,-99.99,,2013-05-11 15:42:00,
2013-05-11 11:53:00,74.0,70.0,29.98,SSW,200,11.0,16.0,86,-99.99,,,-99.99,,2013-05-11 15:53:00,
2013-05-11 12:00:00,71.0,70.0,29.95,South,170,13.0,15.0,97,-99.99,,,-99.99,,2013-05-11 16:00:00,
2013-05-11 12:22:00,71.0,70.0,29.95,South,170,13.0,15.0,97,-99.99,,,-99.99,,2013-05-11 16:22:00,
2013-05-11 12:32:00,71.0,70.0,29.95,South,170,13.0,15.0,97,-99.99,,,-99.99,,2013-05-11 16:32:00,
2013-05-11 12:42:00,71.0,70.0,29.95,South,170,13.0,15.0,97,-99.99,,,-99.99,,2013-05-11 16:42:00,
2013-05-11 12:52:00,71.0,70.0,29.95,South,170,13.0,15.0,97,-99.99,,,-99.99,,2013-05-11 16:52:00,
2013-05-11 13:00:00,76.0,71.0,29.95,South,190,16.0,24.0,85,-99.99,,,-99.99,,2013-05-11 17:00:00,
2013-05-11 13:22:00,76.0,71.0,29.95,South,190,16.0,24.0,85,-99.99,,,-99.99,,2013-05-11 17:22:00,
2013-05-11 13:31:00,76.0,71.0,29.95,South,190,16.0,24.0,85,-99.99,,,-99.99,,2013-05-11 17:31:00,
2013-05-11 13:41:00,76.0,71.0,29.95,South,190,16.0,24.0,85,-99.99,,,-99.99,,2013-05-11 17:41:00,
2013-05-11 13:51:00,76.0,71.0,29.95,South,190,16.0,24.0,85,-99.99,,,-99.99,,2013-05-11 17:51:00,
2013-05-11 14:00:00,73.0,71.0,29.93,South,180,16.0,18.0,92,-99.99,,,-99.99,,2013-05-11 18:00:00,
2013-05-11 14:21:00,73.0,71.0,29.93,South,180,16.0,18.0,92,-99.99,,,-99.99,,2013-05-11 18:21:00,
2013-05-11 14:31:00,73.0,71.0,29.93,South,180,16.0,18.0,92,-99.99,,,-99.99,,2013-05-11 18:31:00,
2013-05-11 14:41:00,73.0,71.0,29.93,South,180,16.0,18.0,92,-99.99,,,-99.99,,2013-05-11 18:41:00,
2013-05-11 14:51:00,73.0,71.0,29.93,South,180,16.0,18.0,92,-99.99,,,-99.99,,2013-05-11 18:51:00,
2013-05-11 15:00:00,74.0,67.0,29.90,SSW,200,17.0,22.0,78,-99.99,,,-99.99,,2013-05-11 19:00:00,
2013-05-11 15:21:00,74.0,67.0,29.90,SSW,200,17.0,22.0,78,-99.99,,,-99.99,,2013-05-11 19:21:00,
2013-05-11 15:31:00,74.0,67.0,29.90,SSW,200,17.0,22.0,78,-99.99,,,-99.99,,2013-05-11 19:31:00,
2013-05-11 15:41:00,74.0,67.0,29.90,SSW,200,17.0,22.0,78,-99.99,,,-99.99,,2013-05-11 19:41:00,
2013-05-11 15:52:00,74.0,67.0,29.90,SSW,200,17.0,22.0,78,-99.99,,,-99.99,,2013-05-11 19:52:00,
2013-05-11 16:00:00,74.0,70.0,29.89,SSW,210,15.0,20.0,84,-99.99,,,-99.99,,2013-05-11 20:00:00,
2013-05-11 16:22:00,74.0,70.0,29.89,SSW,210,15.0,20.0,84,-99.99,,,-99.99,,2013-05-11 20:22:00,
2013-05-11 16:32:00,74.0,70.0,29.89,SSW,210,15.0,20.0,84,-99.99,,,-99.99,,2013-05-11 20:32:00,
2013-05-11 16:42:00,74.0,70.0,29.89,SSW,210,15.0,20.0,84,-99.99,,,-99.99,,2013-05-11 20:42:00,
2013-05-11 16:52:00,74.0,70.0,29.89,SSW,210,15.0,20.0,84,-99.99,,,-99.99,,2013-05-11 20:52:00,
2013-05-11 17:00:00,70.0,70.0,29.88,South,190,17.0,18.0,99,-99.99,,,-99.99,,2013-05-11 21:00:00,
2013-05-11 17:21:00,70.0,70.0,29.88,South,190,17.0,18.0,99,-99.99,,,-99.99,,2013-05-11 21:21:00,
2013-05-11 17:33:00,70.0,70.0,29.88,South,190,17.0,18.0,99,-99.99,,,-99.99,,2013-05-11 21:33:00,
2013-05-11 17:43:00,70.0,70.0,29.88,South,190,17.0,18.0,99,-99.99,,,-99.99,,2013-05-11 21:43:00,
2013-05-11 17:52:00,70.0,70.0,29.88,South,190,17.0,18.0,99,-99.99,,,-99.99,,2013-05-11 21:52:00,
2013-05-11 18:00:00,72.0,72.0,29.88,SSW,200,14.0,17.0,99,-99.99,,,-99.99,,2013-05-11 22:00:00,
2013-05-11 18:22:00,72.0,72.0,29.88,SSW,200,14.0,17.0,99,-99.99,,,-99.99,,2013-05-11 22:22:00,
2013-05-11 18:32:00,72.0,72.0,29.88,SSW,200,14.0,17.0,99,-99.99,,,-99.99,,2013-05-11 22:32:00,
2013-05-11 18:42:00,72.0,72.0,29.88,SSW,200,14.0,17.0,99,-99.99,,,-99.99,,2013-05-11 22:42:00,
2013-05-11 18:52:00,72.0,72.0,29.88,SSW,200,14.0,17.0,99,-99.99,,,-99.99,,2013-05-11 22:52:00,
2013-05-11 19:00:00,72.0,71.0,29.87,SSW,200,14.0,20.0,96,-99.99,,,-99.99,,2013-05-11 23:00:00,
2013-05-11 19:21:00,72.0,71.0,29.87,SSW,200,14.0,20.0,96,-99.99,,,-99.99,,2013-05-11 23:21:00,
2013-05-11 19:31:00,72.0,71.0,29.87,SSW,200,14.0,20.0,96,-99.99,,,-99.99,,2013-05-11 23:31:00,
2013-05-11 19:42:00,72.0,71.0,29.87,SSW,200,14.0,20.0,96,-99.99,,,-99.99,,2013-05-11 23:42:00,
2013-05-11 19:52:00,72.0,71.0,29.87,SSW,200,14.0,20.0,96,-99.99,,,-99.99,,2013-05-11 23:52:00,
2013-05-11 20:00:00,71.0,68.0,29.87,SSW,210,16.0,22.0,90,-99.99,,,-99.99,,2013-05-12 00:00:00,
2013-05-11 20:21:00,71.0,68.0,29.87,SSW,210,16.0,22.0,90,-99.99,,,-99.99,,2013-05-12 00:21:00,
2013-05-11 20:32:00,71.0,68.0,29.87,SSW,210,16.0,22.0,90,-99.99,,,-99.99,,2013-05-12 00:32:00,
2013-05-11 20:41:00,71.0,68.0,29.87,SSW,210,16.0,22.0,90,-99.99,,,-99.99,,2013-05-12 00:41:00,
2013-05-11 20:51:00,71.0,68.0,29.87,SSW,210,16.0,22.0,90,-99.99,,,-99.99,,2013-05-12 00:51:00,
2013-05-11 21:00:00,71.0,69.0,29.87,SSW,200,15.0,18.0,93,-99.99,,,-99.99,,2013-05-12 01:00:00,
2013-05-11 21:21:00,71.0,69.0,29.87,SSW,200,15.0,18.0,93,-99.99,,,-99.99,,2013-05-12 01:21:00,
2013-05-11 21:31:00,71.0,69.0,29.87,SSW,200,15.0,18.0,93,-99.99,,,-99.99,,2013-05-12 01:31:00,
2013-05-11 21:41:00,71.0,69.0,29.87,SSW,200,15.0,18.0,93,-99.99,,,-99.99,,2013-05-12 01:41:00,
2013-05-11 21:52:00,71.0,69.0,29.87,SSW,200,15.0,18.0,93,-99.99,,,-99.99,,2013-05-12 01:52:00,
2013-05-11 22:00:00,70.0,69.0,29.89,SSW,210,14.0,20.0,95,-99.99,,,-99.99,,2013-05-12 02:00:00,
2013-05-11 22:21:00,70.0,69.0,29.89,SSW,210,14.0,20.0,95,-99.99,,,-99.99,,2013-05-12 02:21:00,
2013-05-11 22:31:00,70.0,69.0,29.89,SSW,210,14.0,20.0,95,-99.99,,,-99.99,,2013-05-12 02:31:00,
2013-05-11 22:41:00,70.0,69.0,29.89,SSW,210,14.0,20.0,95,-99.99,,,-99.99,,2013-05-12 02:41:00,
2013-05-11 22:52:00,70.0,69.0,29.89,SSW,210,14.0,20.0,95,-99.99,,,-99.99,,2013-05-12 02:52:00,
2013-05-11 23:00:00,-999.0,-99.9,29.88,SSW,200,15.0,17.0,94,-99.99,,,-99.99,,2013-05-12 03:00:00,
2013-05-11 23:21:00,70.0,69.0,29.88,SSW,200,15.0,17.0,94,-99.99,,,-99.99,,2013-05-12 03:21:00,
2013-05-11 23:32:00,70.0,69.0,29.88,SSW,200,15.0,17.0,94,-99.99,,,-99.99,,2013-05-12 03:32:00,
2013-05-11 23:42:00,70.0,69.0,29.88,SSW,200,15.0,17.0,94,-99.99,,,-99.99,,2013-05-12 03:42:00,
2013-05-11 23:52:00,70.0,69.0,29.88,SSW,200,15.0,17.0,94,-99.99,,,-99.99,,2013-05-12 03:52:00,